Find Starlink 37892

NORAD ID: 69485 Int'l Des: 2026-131 Owner: SPXS Country: US Constellation: starlink operational
LEOCIRCULARRETROGRADE

現在のビュー

3D地球を読み込み中...

About Starlink 37892

Starlink 37892 (NORAD 69485) is a starlink constellation satellite (v2 mini) launched Jun 11, 2026 by SPXS of US. It operates in LEO, CIRCULAR, RETROGRADE orbit with a mass of 575.00 kg.

次回通過

Passes for default location (London). Set your location on the main map for personalized predictions.

高度履歴

Loading altitude history...

軌道要素

1 69485U 26131H 26209.06303154 .00023091 00000-0 71500-3 0 9997
2 69485 97.2832 230.6840 0002587 102.0947 258.0586 15.33460455 8551
Epoch: Jul 28, 2026 • Age: 8 hours

現在のステータス

高度 474.4 km
遠地点 / 近地点 N/A
速度 7.64 km/s
衛星直下点 62.13°N, 28.92°W
打ち上げ日 Jun 11, 2026
運用期間 0.1 years
タイプ internet

技術仕様

分類 Payload
質量 575.00 kg
乾燥質量 530.00 kg
総質量 575.00 kg
長さ 0.30 m
直径 4.10 m
スパン 29.00 m
形状 Box + pan
製造者 SPXS
バスタイプ Starlink V2MO
フェーズステータス In Orbit
所有者/国 SPXS/US

Most Searched